Date/Time (UTC),ProbHail,ProbWind,ProbTor,MESH,VIL Density,Flash Rate,Max Flash Density,LJA sigma-level,Max 0-2km AzShear,LLAZ 98th%,MLAZ 98th%,MUCAPE,MLCAPE,CAPE -10C to -30C,MLCIN,SRH 0-1km AGL,EBShear,MeanWind 0-1km AGL,Norm. Sat. Growth Rate,PWAT,WBZ,AvgBeamHgt,size
2019/05/28 02:02,12,73,18,0.54,2.2,32,0.71,0.0,8,6,5,2316,1996,546,10,316,55.8,41.6,0,1.8,10.4,6.1,178
2019/05/28 02:04,19,89,34,0.57,2.6,44,0.95,0.0,10,7,5,2298,1984,542,10,317,55.8,41.5,0,1.8,10.3,6.0,199
2019/05/28 02:06,29,92,40,0.73,2.6,44,0.95,0.0,10,7,4,2269,1965,536,10,317,55.8,41.5,0,1.8,10.2,5.9,227
2019/05/28 02:08,29,92,40,0.73,2.6,44,0.95,0.0,10,7,4,2231,1937,528,10,318,55.7,41.4,0,1.8,10.2,5.7,206
2019/05/28 02:10,31,92,51,0.73,2.5,44,0.95,0.0,11,8,6,2202,1918,521,10,318,55.7,41.3,0,1.8,10.1,5.5,217
2019/05/28 02:12,23,90,51,0.69,2.6,34,0.95,0.0,11,8,6,2159,1884,512,10,318,55.6,41.2,0,1.8,10.1,5.3,241
2019/05/28 02:14,36,95,56,0.7,2.6,63,0.95,5.1,11,8,7,2000,1796,474,10,315,55.8,40.8,0,1.8,10.1,4.8,494
2019/05/28 02:16,36,95,56,0.7,2.6,63,0.95,0.0,11,8,6,1972,1786,466,11,312,55.7,40.6,0,1.8,10.1,4.6,507
2019/05/28 02:18,52,94,72,0.87,2.2,63,0.95,0.5,16,8,6,1967,1783,465,11,311,55.7,40.6,0,1.8,10.1,4.6,504
2019/05/28 02:20,63,92,74,0.87,2.2,99,0.95,2.1,17,8,7,1948,1773,459,11,308,55.5,40.4,0,1.8,10.2,4.4,559
2019/05/28 02:22,63,95,78,0.87,2.8,99,0.95,0.0,18,9,6,1919,1762,449,12,305,55.3,40.2,0,1.8,10.2,4.2,557
2019/05/28 02:24,76,95,78,1.15,2.8,99,0.95,0.1,22,9,6,1907,1755,446,12,303,55.2,40.1,0,1.8,10.2,4.1,542
2019/05/28 02:26,76,95,87,1.15,2.8,99,0.95,1.2,24,11,8,1897,1745,445,12,300,55.0,40.0,0,1.8,10.2,4.0,619
2019/05/28 02:28,74,95,88,1.15,2.6,86,0.95,0.0,25,11,8,1877,1731,439,13,296,54.9,39.8,0,1.8,10.2,3.9,547
2019/05/28 02:30,74,95,88,1.15,2.7,86,0.95,0.0,25,12,8,1859,1721,435,13,292,54.8,39.6,0,1.8,10.2,3.7,521
2019/05/28 02:32,68,95,88,1.04,2.7,86,0.95,0.0,25,12,7,1844,1709,436,14,288,54.6,39.4,0,1.8,10.2,3.6,614
2019/05/28 02:34,56,95,88,1.05,2.7,59,0.95,0.1,33,12,7,1833,1699,435,14,285,54.4,39.2,0,1.9,10.2,3.5,583
2019/05/28 02:36,56,95,82,1.05,3.0,60,0.73,0.3,30,14,7,1824,1691,434,14,283,54.4,39.1,0,1.9,10.2,3.4,555
2019/05/28 02:38,68,95,85,1.05,3.0,87,0.73,2.3,30,14,8,1815,1679,439,14,283,54.2,38.9,0,1.8,10.2,3.3,619
2019/05/28 02:40,68,95,91,1.03,3.3,87,0.73,0.0,28,14,10,1801,1669,437,15,283,54.2,38.8,0,1.8,10.3,3.2,583
2019/05/28 02:42,79,95,91,1.2,3.5,87,0.73,0.6,32,18,10,1785,1661,430,15,283,54.1,38.7,0,1.9,10.3,3.1,565
2019/05/28 02:44,79,95,92,1.2,3.5,87,0.73,0.1,32,18,13,1749,1643,423,15,284,54.0,38.3,0,1.9,10.3,3.0,614
2019/05/28 02:46,81,95,92,1.2,3.5,97,0.77,1.5,32,18,13,1734,1636,417,16,284,53.9,38.1,0,1.9,10.3,2.9,610
2019/05/28 02:48,79,95,92,1.18,3.1,97,0.77,0.0,32,18,13,1714,1628,410,16,285,53.9,37.9,0,1.9,10.3,2.8,574
2019/05/28 02:50,79,95,92,1.18,3.1,97,0.77,0.3,32,17,11,1684,1610,400,17,287,54.0,37.6,0,1.9,10.3,2.7,648
2019/05/28 02:52,79,95,92,1.18,3.2,97,0.77,0.0,26,15,11,1677,1603,405,17,288,54.0,37.6,0,1.8,10.3,2.6,609
2019/05/28 02:54,68,95,93,1.05,3.2,85,0.77,1.1,26,15,11,1673,1175,424,6,299,53.7,41.8,0,1.8,10.3,2.6,597
2019/05/28 02:56,68,95,93,1.01,3.2,85,0.77,0.0,29,15,11,1669,1181,426,7,299,53.4,41.8,0,1.8,10.3,2.4,642
2019/05/28 02:58,58,97,93,0.87,2.9,85,0.77,0.0,29,17,12,1725,1199,447,10,305,53.1,41.5,0,1.7,10.4,2.1,360
2019/05/28 03:00,77,95,93,1.17,3.1,85,0.77,0.0,29,17,13,1719,1203,446,10,306,53.0,41.5,0,1.7,10.3,2.1,349
2019/05/28 03:02,65,95,93,1.17,3.1,56,0.77,0.2,29,17,14,1702,1207,442,11,306,52.7,41.5,0,1.7,10.3,1.9,408
2019/05/28 03:04,68,95,93,1.31,3.3,45,0.77,0.5,22,11,12,1622,1186,420,8,300,53.2,41.8,0,1.8,10.3,2.1,695
2019/05/28 03:06,79,95,93,1.72,3.4,44,0.77,0.0,24,12,14,1691,1215,440,12,307,52.4,41.5,0,1.7,10.3,1.8,391
2019/05/28 03:08,79,95,93,1.72,3.4,44,0.77,0.0,24,12,13,1682,1223,440,13,307,52.2,41.5,0,1.7,10.3,1.7,434
2019/05/28 03:10,79,95,93,1.72,3.8,44,0.77,0.8,24,13,13,1676,1228,439,14,307,52.1,41.4,0,1.7,10.3,1.7,407
2019/05/28 03:12,83,95,93,1.95,4.0,40,0.77,0.0,32,17,13,1674,1231,440,14,307,52.0,41.4,0,1.7,10.3,1.6,403
2019/05/28 03:14,83,95,92,1.95,4.0,40,0.77,0.5,32,17,14,1665,1239,440,15,307,52.0,41.4,0,1.7,10.3,1.5,459
2019/05/28 03:16,83,95,92,1.95,4.0,40,0.77,0.0,32,17,14,1658,1244,440,16,307,51.9,41.3,0,1.7,10.3,1.5,449
2019/05/28 03:18,88,95,92,1.92,3.7,60,0.68,5.2,32,17,15,1655,1247,440,17,307,51.9,41.2,0,1.7,10.3,1.4,439
2019/05/28 03:20,87,95,92,1.84,3.7,60,0.68,0.0,36,18,18,1647,1247,441,18,308,51.8,41.1,0,1.7,10.3,1.3,473
2019/05/28 03:22,88,95,92,1.89,3.7,60,0.68,0.1,36,18,18,1640,1248,440,19,308,51.8,41.0,0,1.7,10.3,1.3,435
2019/05/28 03:24,88,95,91,1.99,3.7,60,0.68,0.1,36,19,18,1632,1247,439,19,309,51.8,41.0,0,1.7,10.3,1.2,459
2019/05/28 03:26,84,95,91,2.0,3.8,42,0.68,0.4,36,19,12,1626,1245,439,20,309,51.8,40.8,0,1.7,10.3,1.2,490
2019/05/28 03:28,86,95,91,2.33,3.8,42,0.68,0.0,36,19,12,1625,1243,439,21,309,51.8,40.7,0,1.7,10.3,1.1,482
2019/05/28 03:30,90,95,91,2.33,3.8,62,0.77,1.6,31,18,12,1618,1241,437,21,309,51.8,40.6,0,1.7,10.3,1.1,476
2019/05/28 03:32,92,95,93,2.33,3.6,70,0.77,1.0,31,18,11,1614,1211,428,19,308,52.6,41.2,0,1.7,10.3,1.4,825
2019/05/28 03:34,95,95,93,2.18,3.6,107,0.79,5.4,23,18,11,1614,1208,427,19,309,52.6,41.3,0,1.7,10.3,1.4,827
2019/05/28 03:36,95,95,93,1.96,3.9,107,0.79,0.0,22,15,11,1609,1206,426,19,309,52.8,41.4,0,1.7,10.3,1.4,860
2019/05/28 03:38,93,95,93,1.75,3.9,107,0.79,0.0,22,15,11,1605,1203,425,19,309,52.8,41.4,0,1.7,10.3,1.5,818
2019/05/28 03:40,93,95,93,1.74,3.9,107,0.79,0.0,21,14,11,1603,1202,425,19,309,52.9,41.4,0,1.7,10.3,1.5,788
2019/05/28 03:42,89,95,92,1.74,3.7,73,0.79,0.0,21,14,11,1600,1204,425,21,309,52.9,41.1,0,1.7,10.3,1.4,809
2019/05/28 03:44,78,95,92,1.28,3.5,70,0.79,0.0,21,14,10,1601,1201,425,21,308,52.8,41.1,0,1.7,10.3,1.4,784
2019/05/28 03:46,81,95,92,1.25,3.3,85,0.79,2.1,25,15,9,1596,1202,425,22,308,52.8,40.9,0,1.7,10.2,1.3,781
2019/05/28 03:48,71,95,91,1.05,3.3,85,0.79,0.0,25,15,8,1601,1199,426,24,307,52.7,40.4,0,1.7,10.2,1.3,768
